Simultaneous Nadir Overpasses (SNOs) Predictions

Prediction of SNOs between AQUA and GOES-15 Satellite Orbit:

Table of predicted SNOs for the next 14.0 days since TLE Epoch: 4/13/2024
Index Date Time (AQUA) AQUA Lat,Lon GOES-15 Lat,Lon Distance(km) Time Diff (sec)
1 04/13/2024 10:14:49 -0.83, 57.91 -0.08, 61.27 383.14 80
2 04/15/2024 09:58:49 -0.00, 61.82 -0.09, 61.29 59.66 80
3 04/15/2024 22:19:05 1.02, 56.91 0.08, 61.25 494.78 80
4 04/17/2024 22:03:04 0.21, 60.83 0.09, 61.27 51.75 80
5 04/19/2024 21:47:03 -0.64, 64.74 0.09, 61.30 391.63 80
6 04/20/2024 10:07:27 -0.44, 59.81 -0.08, 61.34 175.16 80
7 04/22/2024 09:51:25 0.40, 63.73 -0.09, 61.36 268.08 80
8 04/22/2024 22:11:42 0.59, 58.81 0.08, 61.33 286.71 80
9 04/24/2024 21:55:39 -0.23, 62.74 0.07, 61.36 156.13 80
10 04/25/2024 10:16:03 -0.82, 57.80 -0.06, 61.41 410.34 80
